SCP
5 4 4 6 4 3 2 2 2 2 2 1 1 1 1 1 1 1 1 1 1 0
4 4 2 3 3 2 1 1 1 1 1 1 0 1 1 0 0 1 1 1 1 0
2 2 2 1 1 1 1 0 0 0 0 0 0 0 0 0 0 0 0 0 0 0
0 0 0 0 0 0 0 0 0 0 0 0 0 0 0 0 0 0 0 0 0 0
0 0 0 0 0 0 0 0 0 0 0 0 0 0 0 0 0 0 0 0 0 0
0 0 0 0 0 0 0 0 0 0 0 0 0 0 0 0 0 0 0 0 0 0
0 0 0 0 0 0 0 0 0 0 0 0 0 0 0 0 0 0 0 0 0 0
0 0 0 0 0 0 0 0 0 0 0 0 0 0 0 0 0 0 0 0 0 0
0 0 0 0 0 0 0 0 0 0 0 0 0 0 0 0 0 0 0 0 0 0
0 0 0 0 0 0 0 0 0 0 0 0 0 0 0 0 0 0 0 0 0 0
0 0 0 0 0 0 0 0 0 0 0 0 0 0 0 0 0 0 0 0 0 0
0 0 0 0 0 0 0 0 0 0 0 0 0 0 0 0 0 0 0 0 0 0
0 0 0 0 0 0 0 0 0 0 0 0 0 0 0 0 0 0 0 0 0 0
0 0 0 0 0 0 0 0 0 0 0 0 0 0 0 0 0 0 0 0 0 -0
Wind_Speed_500mb
44 26 28 31 27 24 17 18 19 19 20 21 23 25 27 24 19 19 30 36 39 44
31 33 27 31 24 24 13 8 14 19 23 24 26 29 30 28 22 28 34 40 41 39
47 44 34 38 30 25 21 13 7 7 9 12 18 22 28 27 26 32 36 41 43 43
35 36 33 30 22 17 11 7 4 7 10 14 17 23 28 32 31 30 38 46 51 53
36 32 29 22 15 9 3 5 10 13 17 17 19 27 30 35 38 37 38 44 49 52
30 23 18 12 6 3 2 7 12 16 20 22 25 25 27 25 35 44 48 55 56 54
26 21 17 13 10 11 13 16 20 22 21 18 21 30 34 40 47 53 52 45 41 40
25 19 17 15 14 13 13 12 11 11 9 19 22 33 41 41 37 39 41 39 39 40
24 21 21 17 9 10 8 15 11 16 16 25 30 36 36 34 35 37 35 39 39 42
24 19 16 12 15 17 21 19 14 11 15 25 31 36 33 33 34 38 37 41 45 44
24 22 20 18 20 20 21 25 20 17 17 23 29 33 35 34 37 35 34 41 44 46
23 22 21 21 22 24 25 26 29 21 17 20 24 28 30 39 41 40 46 45 44 49
22 23 23 23 24 26 24 24 19 20 19 19 21 25 33 40 44 47 50 52 54 65
25 24 24 24 24 27 25 24 21 16 17 19 23 27 27 33 43 52 55 62 67 62
Wind_Direction_500mb
181 159 174 159 174 182 205 217 221 231 244 245 253 261 260 263 258 271 272 277 284 288
157 171 185 169 171 175 199 235 241 256 265 267 267 268 269 276 272 272 282 288 293 295
167 165 163 161 166 169 174 198 214 245 268 280 285 285 289 291 283 281 283 288 293 290
147 150 155 154 153 155 165 182 253 293 308 308 307 300 292 299 305 294 287 288 290 291
149 141 137 135 134 136 163 256 287 287 287 281 278 283 299 300 303 308 301 292 292 293
128 124 118 113 96 80 313 307 302 301 303 311 318 321 308 297 286 293 296 298 299 300
107 98 89 74 45 22 4 353 351 353 360 343 316 299 299 296 301 306 310 315 314 315
97 94 77 58 36 27 6 349 13 343 334 298 329 311 313 320 332 331 328 329 333 322
74 66 64 54 30 11 325 311 325 331 343 324 328 333 334 343 344 343 347 341 327 314
75 66 55 33 12 13 -0 355 0 350 324 330 333 334 352 3 359 354 349 338 331 330
66 63 51 29 19 28 21 7 359 354 332 346 339 355 4 4 359 356 353 352 352 343
63 55 52 50 42 39 33 9 23 27 16 3 355 3 0 8 6 7 3 357 357 334
54 63 54 45 30 23 19 17 28 42 32 18 17 6 8 5 3 9 4 5 355 345
72 40 47 38 26 27 27 25 35 52 42 21 19 19 7 0 11 12 11 3 354 350
Wind_Speed_850mb
44 26 28 31 27 24 17 18 19 19 20 21 23 25 27 24 19 19 30 36 39 44
31 33 27 31 24 24 13 8 14 19 23 24 26 29 30 28 22 28 34 40 41 39
47 44 34 38 30 25 21 13 7 7 9 12 18 22 28 27 26 32 36 41 43 43
35 36 33 30 22 17 11 7 4 7 10 14 17 23 28 32 31 30 38 46 51 53
36 32 29 22 15 9 3 5 10 13 17 17 19 27 30 35 38 37 38 44 49 52
30 23 18 12 6 3 2 7 12 16 20 22 25 25 27 25 35 44 48 55 56 54
26 21 17 13 10 11 13 16 20 22 21 18 21 30 34 40 47 53 52 45 41 40
25 19 17 15 14 13 13 12 11 11 9 19 22 33 41 41 37 39 41 39 39 40
24 21 21 17 9 10 8 15 11 16 16 25 30 36 36 34 35 37 35 39 39 42
24 19 16 12 15 17 21 19 14 11 15 25 31 36 33 33 34 38 37 41 45 44
24 22 20 18 20 20 21 25 20 17 17 23 29 33 35 34 37 35 34 41 44 46
23 22 21 21 22 24 25 26 29 21 17 20 24 28 30 39 41 40 46 45 44 49
22 23 23 23 24 26 24 24 19 20 19 19 21 25 33 40 44 47 50 52 54 65
25 24 24 24 24 27 25 24 21 16 17 19 23 27 27 33 43 52 55 62 67 62
Wind_Direction_850mb
181 159 174 159 174 182 205 217 221 231 244 245 253 261 260 263 258 271 272 277 284 288
157 171 185 169 171 175 199 235 241 256 265 267 267 268 269 276 272 272 282 288 293 295
167 165 163 161 166 169 174 198 214 245 268 280 285 285 289 291 283 281 283 288 293 290
147 150 155 154 153 155 165 182 253 293 308 308 307 300 292 299 305 294 287 288 290 291
149 141 137 135 134 136 163 256 287 287 287 281 278 283 299 300 303 308 301 292 292 293
128 124 118 113 96 80 313 307 302 301 303 311 318 321 308 297 286 293 296 298 299 300
107 98 89 74 45 22 4 353 351 353 360 343 316 299 299 296 301 306 310 315 314 315
97 94 77 58 36 27 6 349 13 343 334 298 329 311 313 320 332 331 328 329 333 322
74 66 64 54 30 11 325 311 325 331 343 324 328 333 334 343 344 343 347 341 327 314
75 66 55 33 12 13 -0 355 0 350 324 330 333 334 352 3 359 354 349 338 331 330
66 63 51 29 19 28 21 7 359 354 332 346 339 355 4 4 359 356 353 352 352 343
63 55 52 50 42 39 33 9 23 27 16 3 355 3 0 8 6 7 3 357 357 334
54 63 54 45 30 23 19 17 28 42 32 18 17 6 8 5 3 9 4 5 355 345
72 40 47 38 26 27 27 25 35 52 42 21 19 19 7 0 11 12 11 3 354 350